International Virtual Aviation Organisation

Eastern Europe and Northern Asia MCD

 

Карточка аэропорта UWUU

Внимание!
Информация на этой странице в стадии наполнения.
Если вы не увидели какой-то информации, или заметили неточность - пожалуйста сообщите нам!
Спасибо!
Команда RU-STAFF
Название аэропортаУфа
Название аэропорта (англ.)Ufa
Превышение449 ft. (136.9 m.)
Координаты54°33.6', 55°52.2'
Высота перехода5000ft
Эшелон переходаFL070
Коды ответчика6730-6731
Зона ОрВДСамара РПИ (UWWW)
Данные METARUWUU 121230Z 03003MPS 360V070 9999 BKN040 17/06 Q1035 R32L/0///60 NOSIG
Проноз погоды (TAF)UWUU 121045Z 1212/1312 01003G08MPS 9999 BKN030 TX16/1212Z TN04/1303Z TEMPO 1300/1306 VRB01MPS FM130600 14003G08MPS 9999 BKN020
NOTAMshow/hide NOTAM
AWOS   TABLE

Информация о ВПП

ВПП Длина ВПП (м.) Покрытие Курс ВПП Частота ILS
14R3765Бетон138110.3
14L2516Асфальтобетон138108.3
32R2516Асфальтобетон318109.1
32L3765Бетон318 

Диспетчерские позиции

Позывной Наименование органа УВД Частота
UWUU_R_APPУфа-Круг124.000
UWUU_APPУфа-Подход126.000
UWUU_GNDУфа-Руление119.000
UWUU_TWRУфа-Старт120.900



Спутниковое изображение